Tracking 30505 objects as of 23-May-2025
HD Live streaming from Space Station
objects crossing your sky now

SHIYAN 27F

Track SHIYAN 27F now!
10-day predictions


NORAD ID: 63604
Int'l Code: 2025-078F
Perigee: 1,052.3 km
Apogee: 1,053.8 km
Inclination: 99.7 °
Period: 106.1 minutes
Semi major axis: 7424 km
RCS: Unknown
Launch date: April 18, 2025
Source: People's Republic of China (PRC)
Launch site: Taiyaun Space Center, China (TSC)
Your satellite tracking list
Your tracking list is empty




NASA's NSSDC Master Catalog

Two Line Element Set (TLE):
1 63604U 25078F   25142.55468610  .00000030  00000-0  10346-3 0  9990
2 63604  99.6912 150.6224 0000986  91.9324 268.1927 13.57200496  4543
Source of the keplerian elements: AFSPC